Change the Weather History Date:

Sunday, November 20, 2011

  Actual Average Record
Temperature  
Mean Temperature 32 °F -  
Max Temperature 37 °F 40 °F 65 °F (1953)
Min Temperature 27 °F 27 °F 8 °F (1951)
Degree Days  
Heating Degree Days 33    
Moisture  
Dew Point 25 °F    
Average Humidity 79    
Maximum Humidity 93    
Minimum Humidity 64    
Precipitation  
Precipitation 0.01 in - - ()
Sea Level Pressure  
Sea Level Pressure 30.18 in    
Wind  
Wind Speed 12 mph (NNW)    
Max Wind Speed 21 mph    
Max Gust Speed 29 mph    
Visibility 10 miles    
Events Rain    
Averages and records for this station are not official NWS values.
T = Trace of Precipitation, MM = Missing Value Source: NWS Daily Summary

Daily Weather History Graph

Daily Weather History Graph

Search for Another Location

Airport or City:

Trip Planner

Search our weather history database for the weather conditions in past years. The results will help you decide how hot, cold, wet, or windy it might be!

Date:

Astronomy

Nov. 20, 2011 Rise Set
Actual Time 7:44 AM EST 5:04 PM EST
Civil Twilight 7:12 AM EST 5:36 PM EST
Nautical Twilight 6:35 AM EST 6:13 PM EST
Astronomical Twilight 6:00 AM EST 6:48 PM EST
Moon 1:57 AM EST (11/20) 2:05 PM EST (11/20)
Length of Visible Light 10h 24m
Length of Day
9h 19m
Waning Crescent, 27% of the Moon is Illuminated
Nov 20
Waning Crescent
Nov 25
New
Dec 2
First Quarter
Dec 10
Full
Dec 17
Last Quarter

Hourly Weather History & Observations

Time (EST) Temp. Windchill Dew Point Humidity Pressure Visibility Wind Dir Wind Speed Gust Speed Precip Events Conditions
2:54 AM 37.0 °F 28.9 °F 35.1 °F 93% 29.86 in 10.0 mi NNW 12.7 mph 20.7 mph 0.01 in Rain Light Rain
3:05 AM 37.4 °F 27.5 °F 33.8 °F 87% 29.85 in 10.0 mi NNW 18.4 mph 25.3 mph 0.00 in Rain Light Rain
3:45 AM 35.6 °F 26.2 °F 33.8 °F 93% 29.89 in 10.0 mi NNW 15.0 mph 28.8 mph 0.00 in   Overcast
3:54 AM 36.0 °F 26.3 °F 33.1 °F 89% 29.92 in 10.0 mi NW 16.1 mph 24.2 mph 0.00 in   Overcast
4:32 AM 35.6 °F 24.5 °F 32.0 °F 87% 29.94 in 10.0 mi NW 20.7 mph 27.6 mph N/A   Overcast
4:54 AM 35.1 °F 24.5 °F 30.9 °F 85% 29.98 in 10.0 mi NW 18.4 mph - N/A   Overcast
5:21 AM 33.8 °F 24.8 °F 30.2 °F 87% 29.98 in 10.0 mi NW 12.7 mph 23.0 mph N/A   Overcast
5:54 AM 34.0 °F 24.2 °F 30.0 °F 85% 30.02 in 10.0 mi NNW 15.0 mph 25.3 mph N/A   Overcast
6:40 AM 32.0 °F 22.1 °F 28.4 °F 87% 30.06 in 10.0 mi NW 13.8 mph - N/A   Overcast
7:07 AM 32.0 °F 22.5 °F 28.4 °F 87% 30.07 in 10.0 mi NNW 12.7 mph 19.6 mph N/A   Overcast
7:39 AM 30.2 °F 20.8 °F 26.6 °F 86% 30.09 in 10.0 mi NNW 11.5 mph - N/A   Overcast
7:54 AM 30.9 °F 21.2 °F 26.1 °F 82% 30.12 in 10.0 mi NNW 12.7 mph - N/A   Overcast
8:54 AM 30.9 °F 24.3 °F 25.0 °F 79% 30.16 in 10.0 mi NNW 6.9 mph - N/A   Overcast
9:54 AM 32.0 °F 26.4 °F 26.1 °F 79% 30.22 in 10.0 mi NNW 5.8 mph - N/A   Overcast
10:54 AM 30.9 °F 23.5 °F 26.1 °F 82% 30.26 in 10.0 mi NNE 8.1 mph - N/A   Overcast
11:54 AM 30.9 °F 23.5 °F 24.1 °F 76% 30.27 in 10.0 mi North 8.1 mph - N/A   Overcast
12:54 PM 30.9 °F 22.8 °F 25.0 °F 79% 30.28 in 10.0 mi NNW 9.2 mph - N/A   Overcast
1:54 PM 30.9 °F 22.2 °F 24.1 °F 76% 30.29 in 10.0 mi NNW 10.4 mph - 0.00 in   Overcast
2:54 PM 30.0 °F 21.1 °F 23.0 °F 75% 30.31 in 10.0 mi WNW 10.4 mph - N/A   Overcast
3:54 PM 30.0 °F 23.2 °F 21.0 °F 69% 30.33 in 10.0 mi NNW 6.9 mph - N/A   Overcast
4:54 PM 28.9 °F 21.1 °F 21.0 °F 72% 30.35 in 10.0 mi WNW 8.1 mph - N/A   Overcast
5:54 PM 28.4 °F 19.7 °F 21.2 °F 74% 30.33 in 10.0 mi North 9.2 mph - N/A   Overcast
6:54 PM 28.9 °F 21.9 °F 19.9 °F 69% 30.38 in 10.0 mi NNW 6.9 mph - N/A   Overcast
7:54 PM 28.0 °F 21.7 °F 19.9 °F 72% 30.39 in 10.0 mi NNW 5.8 mph - N/A   Overcast
8:38 PM 28.4 °F 21.2 °F 19.4 °F 69% 30.36 in 10.0 mi North 6.9 mph - N/A   Overcast
8:54 PM 28.4 °F 21.2 °F 17.6 °F 64% 30.36 in 10.0 mi North 6.9 mph - N/A   Overcast
9:54 PM 28.0 °F 22.8 °F 19.0 °F 69% 30.40 in 10.0 mi NNE 4.6 mph - N/A   Overcast
10:54 PM 27.0 °F 21.6 °F 19.0 °F 72% 30.40 in 10.0 mi ENE 4.6 mph - N/A   Overcast
11:54 PM 27.0 °F - 19.0 °F 72% 30.40 in 10.0 mi Calm Calm - N/A   Overcast